Flag for Canada Weather past 2 weeks in Kugluktuk, Nunavut Territory, Canada

Now
37 °F

Rain showers. Low clouds.


Feels Like: 27 °F
Forecast: 34 / 44 °F
Wind: 18 mph from East

Location: Coppermine

Current Time: Sep 22, 2014 at 8:20:26 PM

Latest Report: Sep 22, 2014 at 7:00 PM


Visibility: 4 mi

Pressure: 29.28 "Hg

Humidity: 100%

Dew point: 37 °F

Location of KugluktukLocation

Historic Weather in Kugluktuk — Graph

°F

Kugluktuk temperature yesterday

Maximum temperature yesterday: 36 °F (at 6:00 PM)
Minimum temperature yesterday: 32 °F (at 10:00 PM)
Average temperature yesterday: 34 °F

Past Weeks' High & Low Weather Summary

 TemperatureHumidityPressure
High50 °F (Sep 9, 3:00 PM)100% (Sep 18, 2:00 AM)30.30 "Hg (Sep 18, 2:00 AM)
Low23 °F (Sep 16, 12:00 AM)39% (Sep 16, 4:00 PM)29.28 "Hg (Sep 22, 7:00 PM)
Average36 °F79%29.97 "Hg
* Reported Sep 7 7:00 PM — Sep 22 7:00 PM, Kugluktuk, Weather by CustomWeather, © 2014

Note: Actual official high and low records may vary slightly from our data, if they occured in-between our weather recording intervals... More about our weather records

Advertising

Kugluktuk weather history for previous 24 hours

 ConditionsComfort  
Time TempWeatherWind HumidityBarometerVisibility
7:00 PM
Sep 22
37 °FRain showers. Low clouds.18 mph100%29.28 "Hg4 mi
6:00 PM37 °FSprinkles. Mostly cloudy.18 mph100%29.31 "Hg5 mi
5:00 PM39 °FSprinkles. Mostly cloudy.18 mph93%29.34 "Hg6 mi
4:00 PM39 °FSprinkles. Overcast.20 mph93%29.38 "Hg5 mi
3:00 PM39 °FSprinkles. Overcast.17 mph93%29.44 "Hg5 mi
1:00 PM39 °FSprinkles. Overcast.15 mph93%29.53 "Hg8 mi
12:00 PM39 °FSprinkles. Low clouds.12 mph93%29.58 "Hg8 mi
11:00 AM37 °FMore clouds than sun.16 mph93%29.60 "Hg15 mi
10:00 AM37 °FScattered showers. Low clouds.9 mph93%29.64 "Hg15 mi
9:00 AM37 °FLow clouds.12 mph87%29.67 "Hg15 mi
8:00 AM36 °FPassing clouds.9 mph93%29.70 "Hg15 mi
7:00 AM36 °FPassing clouds.12 mph93%29.71 "Hg15 mi
6:00 AM36 °FFog.10 mph93%29.73 "Hg12 mi
5:00 AM36 °FFog.10 mph87%29.75 "Hg12 mi
4:00 AM36 °FFog.10 mph87%29.78 "Hg12 mi
3:00 AM34 °FFog.12 mph93%29.80 "Hg12 mi
2:00 AM34 °FFog.13 mph87%29.80 "Hg12 mi
1:00 AM34 °FFog.10 mph87%29.82 "Hg12 mi
12:00 AM32 °FFog.10 mph93%29.82 "Hg12 mi
11:00 PM
Sep 21
32 °FFog.13 mph93%29.85 "Hg12 mi
10:00 PM32 °FFog.13 mph93%29.85 "Hg12 mi
9:00 PM34 °FFog.10 mph87%29.86 "Hg12 mi
8:00 PM36 °FPartly sunny.13 mph81%29.86 "Hg15 mi
Weather by CustomWeather, © 2014

See weather overviewHow to use our weather pages